Temp
9 9 9 8 8 8 8 8 8 8 9 9 9 9 9 8 10 11 10 11 11 11 11 11 11 11 11 11 11 12 10 11 10 12 14 16 17 16 16 18 19 19 18 18 18
8 8 8 8 8 8 8 8 8 8 9 9 9 9 8 9 9 10 11 12 12 11 11 10 10 9 9 10 11 11 10 12 13 12 11 15 16 18 17 17 19 18 18 17 18
8 8 8 8 8 8 8 8 8 8 9 9 8 9 8 9 9 10 11 12 11 11 11 10 9 9 9 10 10 10 10 12 12 13 14 14 15 18 17 16 17 18 16 16 16
8 8 8 8 8 8 8 8 8 8 8 8 8 8 10 10 8 12 11 11 11 11 11 9 8 9 9 9 9 9 11 11 12 13 13 14 15 17 17 16 14 15 15 15 16
8 8 8 8 8 8 8 8 8 8 8 8 8 10 10 8 9 11 11 12 11 11 10 9 8 8 8 7 7 8 10 12 12 12 13 13 13 15 14 13 15 15 15 15 15
8 8 7 8 8 10 8 8 8 9 9 9 9 10 9 8 12 11 11 11 11 10 10 9 9 8 8 7 6 8 11 11 11 12 13 13 14 14 14 12 13 14 15 15 14
9 8 7 9 10 11 8 8 8 10 9 9 9 9 8 10 11 11 11 11 10 10 9 9 8 8 8 8 7 8 10 10 11 12 13 13 14 14 15 14 13 14 15 15 15
8 7 7 7 10 11 9 10 10 10 10 9 9 9 9 11 11 11 11 10 10 10 9 9 9 8 7 8 9 9 9 9 11 12 13 13 12 15 14 14 12 13 14 15 15
9 8 8 7 9 10 10 11 10 10 10 10 10 9 9 11 10 10 10 9 9 9 9 9 8 7 7 8 8 8 9 9 11 12 13 12 11 15 14 13 12 12 13 14 15
9 10 9 7 8 9 11 11 11 11 10 9 10 8 9 8 9 9 10 9 9 8 8 7 6 6 6 7 7 7 8 9 10 10 13 12 13 14 13 13 12 12 12 13 14
9 10 9 8 8 8 11 11 6 7 6 7 6 7 7 9 9 9 9 8 8 6 6 6 6 5 6 6 7 8 7 8 9 11 12 12 13 14 13 13 12 11 12 13 13
10 10 10 9 8 8 9 4 4 3 6 6 6 6 8 7 6 8 8 6 6 5 5 5 6 7 7 7 8 7 7 8 10 11 12 12 12 14 14 12 12 11 11 13 13
10 9 9 9 9 7 5 4 5 4 3 6 6 7 7 7 6 6 7 5 5 5 4 5 7 7 8 7 7 8 8 8 9 10 11 11 12 13 13 12 12 11 11 13 13
9 9 9 9 8 6 5 5 5 5 -1 6 6 7 7 5 7 8 7 5 6 4 4 5 6 7 7 8 8 6 8 9 9 9 10 10 12 13 13 13 13 12 12 13 12
9 9 9 9 8 5 4 5 5 5 3 7 5 8 5 5 5 7 7 5 4 4 5 7 5 6 6 7 7 8 8 8 9 8 8 10 11 13 13 13 13 12 13 12 12
9 9 8 8 6 5 5 5 5 1 2 4 5 4 4 4 4 4 4 4 4 3 4 4 5 6 7 7 7 9 8 9 9 7 6 8 10 12 12 11 14 13 12 12 12
9 8 8 6 5 5 5 4 2 2 4 5 4 4 4 3 4 2 0 -0 0 -1 -3 2 5 6 6 7 7 8 7 4 5 6 8 9 10 10 11 10 10 13 13 13 13
9 8 7 5 6 5 5 1 2 2 3 4 4 4 3 3 2 1 2 0 1 -3 -5 0 4 5 7 7 6 7 7 5 4 6 10 10 9 11 10 10 9 13 13 13 13
8 8 7 6 6 6 1 -2 -1 2 4 3 3 2 2 3 1 -0 -1 -1 1 -2 -2 -2 3 5 7 7 6 7 7 6 4 6 9 9 10 11 9 9 8 8 12 13 13
8 7 7 7 7 5 -1 0 3 3 3 3 2 2 1 1 -0 -2 -4 -1 -1 1 -1 -1 1 5 5 7 7 7 8 7 5 5 8 9 9 9 7 7 7 7 7 8 12
7 3 7 7 7 -0 -2 -1 3 3 2 2 2 1 1 -1 -0 -2 -3 1 1 0 0 -1 -1 2 4 5 5 6 6 7 7 6 8 10 9 7 5 6 6 7 7 7 9
4 2 7 6 -1 -8 -3 2 3 3 2 3 3 2 1 1 -2 -3 -1 1 2 1 -3 1 -3 -1 4 4 4 5 6 7 8 8 7 7 8 5 5 4 5 5 6 8 10
-0 0 6 6 -2 -5 1 2 2 2 2 2 2 2 1 1 -3 -0 1 3 2 1 -1 -0 -4 -0 2 3 5 4 5 5 5 6 7 7 8 6 5 4 4 4 4 6 11
-2 0 -2 -4 -5 -1 -1 0 1 2 2 2 2 2 -1 -1 0 -1 0 2 2 2 4 2 -2 1 4 4 3 1 1 4 5 6 7 7 7 5 5 4 3 3 3 5 6
-2 -3 -1 -4 -3 -3 -4 -1 1 1 2 2 2 1 -0 -6 -5 -4 -1 -0 1 2 0 -3 -3 -1 2 2 3 2 2 3 5 5 7 6 5 3 3 3 2 2 2 3 4
-1 -2 -3 -2 -1 -5 -5 -3 1 1 1 1 -0 0 -0 -4 -2 -4 -2 -1 -1 -0 -5 -4 -1 0 2 4 3 2 2 3 2 2 4 5 4 2 2 3 2 1 1 2 2
0 1 -1 -2 -4 -5 -5 -3 -0 -3 0 1 1 -1 -1 -0 -0 -1 -1 0 0 -1 -5 -5 -3 -2 -0 3 3 3 -0 1 1 1 1 2 1 1 2 2 1 0 -0 0 1
Height
836 833 829 826 823 819 816 812 810 807 804 800 797 794 791 788 785 783 783 782 781 780 779 775 773 771 770 768 765 764 763 754 758 749 742 737 738 735 735 735 732 730 730 729 728
835 832 829 825 822 818 815 812 808 804 802 799 796 793 790 788 787 785 785 782 781 778 776 774 772 771 770 767 764 762 761 748 745 751 754 743 739 733 735 738 731 731 729 725 721
834 832 829 825 821 817 813 809 805 801 799 796 793 792 790 788 789 787 786 783 780 777 775 773 772 770 769 766 763 759 756 750 746 743 744 745 737 731 732 737 733 732 732 727 725
834 831 827 824 820 816 811 807 803 800 796 795 793 791 787 786 799 787 785 783 778 775 773 772 772 771 767 766 766 762 751 750 748 746 747 742 739 731 730 735 739 736 733 728 723
834 829 825 821 817 813 810 806 803 798 796 794 793 790 789 790 791 787 784 780 776 773 772 773 773 772 769 772 769 760 751 746 745 746 743 744 740 734 735 740 738 736 731 725 721
832 828 824 820 816 812 808 804 801 798 797 795 794 793 792 795 789 786 782 778 775 773 771 771 771 770 770 769 770 758 744 744 742 740 740 740 734 733 733 739 738 735 730 725 722
831 827 824 819 815 810 806 802 799 797 796 796 795 794 793 795 788 784 781 778 775 772 771 770 770 770 769 765 764 754 747 744 738 736 736 734 730 728 728 733 736 737 732 725 719
831 827 823 820 814 809 804 801 800 798 797 797 796 794 794 791 790 784 780 775 772 771 770 769 768 769 769 763 757 751 750 749 738 734 731 735 734 724 727 735 740 744 735 724 719
829 826 823 820 816 809 804 801 801 800 798 798 798 796 799 793 788 787 782 775 769 770 768 768 768 771 768 763 760 757 752 753 736 733 730 737 742 726 729 737 742 744 737 733 724
829 826 823 819 816 811 804 802 801 802 800 798 799 803 798 799 791 786 782 775 772 770 770 771 773 774 774 768 771 767 759 750 741 744 730 735 732 729 734 735 738 742 741 738 731
829 825 822 820 817 812 804 803 807 806 806 813 815 812 806 799 791 786 780 776 775 778 784 778 781 787 779 777 774 765 766 757 755 742 735 734 732 730 733 736 737 741 743 738 736
828 826 821 817 816 814 808 813 822 824 819 814 814 813 808 805 801 792 784 784 786 790 788 783 780 778 773 773 768 771 767 760 750 741 736 737 735 728 731 736 739 745 749 739 737
828 824 822 817 815 815 816 821 821 822 826 818 816 814 810 808 807 801 792 789 792 793 795 789 781 775 770 771 771 767 765 763 759 747 741 737 730 729 731 736 740 740 743 739 733
828 825 821 817 817 817 818 820 820 822 853 830 821 818 814 808 806 802 798 797 795 799 795 791 782 778 774 770 771 775 765 759 757 754 751 746 734 727 727 733 736 739 736 737 739
829 825 821 816 819 819 821 818 819 822 860 829 830 820 817 818 819 809 806 800 805 804 801 788 787 782 780 776 774 768 764 760 757 765 763 747 748 730 728 728 731 738 739 737 736
827 826 822 819 818 819 818 818 821 847 875 842 835 834 834 825 822 817 815 805 807 810 804 798 791 784 780 775 772 766 766 758 759 771 781 764 750 742 742 744 733 734 734 737 740
826 825 821 822 822 818 817 819 845 863 852 844 845 839 837 834 827 828 833 835 841 848 852 813 792 786 783 778 774 769 773 798 795 791 776 760 749 751 748 750 753 735 734 736 745
826 825 824 824 819 818 816 834 864 869 860 850 848 843 845 841 838 838 832 843 842 860 871 841 811 794 786 787 789 783 780 799 807 792 760 752 765 751 757 753 746 728 730 738 744
825 824 825 822 818 817 823 871 882 869 860 859 854 855 855 846 852 848 855 856 848 857 867 860 819 796 788 786 790 783 783 786 801 790 768 767 755 752 757 752 746 743 736 739 741
825 826 826 822 819 817 841 871 862 861 862 858 865 864 863 858 861 864 870 855 856 848 855 853 841 801 792 785 786 784 779 781 795 802 776 767 768 772 774 773 765 763 760 755 744
824 830 827 822 821 832 871 876 860 860 863 865 864 868 866 872 864 870 872 850 850 851 849 851 851 820 799 799 799 792 789 784 786 793 777 756 776 792 793 784 780 774 767 763 755
827 841 827 823 845 875 876 860 858 861 861 862 862 865 868 865 873 874 861 851 845 849 864 847 859 852 813 807 806 801 793 790 780 779 787 788 784 800 796 794 788 783 777 765 753
837 840 830 825 868 882 864 864 862 863 864 864 863 866 867 866 884 862 853 844 846 846 855 851 868 851 822 814 804 810 805 809 800 794 784 784 785 797 795 793 789 788 780 766 750
839 853 848 847 866 866 871 870 868 864 864 862 863 864 871 872 865 868 857 846 846 846 838 844 857 847 828 825 824 830 829 813 804 794 785 784 789 799 800 802 796 790 786 778 769
842 862 860 878 874 874 878 874 868 869 866 864 863 867 871 901 887 880 863 856 847 845 849 859 867 854 832 829 819 828 829 820 806 808 788 792 803 817 812 809 810 804 794 785 776
845 853 861 868 869 880 885 881 870 870 871 867 868 864 869 884 876 881 869 864 860 852 866 864 856 845 834 819 822 829 830 821 824 825 812 809 809 823 818 812 811 808 803 794 788
838 843 846 871 877 881 885 880 871 880 871 867 866 866 868 862 861 861 860 859 859 860 873 872 866 860 848 826 822 828 849 840 838 842 836 829 834 829 821 818 820 817 811 804 797
Wind_Speed
18 18 19 19 20 20 21 21 21 20 20 19 19 17 17 16 14 12 5 10 9 16 15 14 16 14 7 3 4 2 7 8 3 17 15 3 14 3 1 4 3 3 2 6 14
18 19 20 21 21 21 22 22 21 20 20 19 17 15 15 13 7 8 13 16 18 18 20 12 7 9 3 3 3 7 4 10 9 4 9 13 11 12 7 11 11 5 4 17 11
18 20 21 23 23 23 22 22 21 20 20 17 13 12 12 8 3 4 14 17 20 20 16 8 7 3 3 3 4 4 15 10 6 6 11 12 17 8 8 11 7 9 10 13 10
19 20 22 23 23 23 23 22 22 21 18 12 9 10 7 6 4 10 18 20 21 13 12 7 4 4 5 5 5 11 14 11 14 17 10 8 14 11 8 6 3 6 7 6 11
20 21 22 23 23 23 23 23 23 19 12 7 7 9 4 5 1 18 22 21 18 13 6 3 2 3 4 5 9 10 10 8 4 7 11 12 17 12 2 3 6 8 9 11 9
20 22 24 24 26 26 25 25 21 9 9 6 7 7 4 9 19 22 22 21 16 8 6 2 2 4 5 5 4 10 6 5 7 11 5 6 15 7 5 4 11 13 14 13 11
20 22 23 24 26 27 26 26 13 5 7 4 7 6 3 2 22 21 19 19 11 8 4 3 4 1 3 8 5 9 3 4 7 7 6 4 9 9 5 6 10 16 15 14 13
21 22 22 23 23 28 27 17 9 4 3 3 7 3 1 16 22 27 23 22 20 8 4 5 4 2 2 6 5 4 2 2 3 3 5 6 4 4 8 7 8 15 16 14 17
21 21 20 21 20 27 27 7 8 8 6 5 5 3 4 26 26 23 23 18 15 4 2 3 3 1 4 6 3 4 1 1 5 6 4 5 4 5 7 9 8 12 12 12 13
21 21 20 20 17 26 22 6 13 12 3 3 12 3 10 9 22 15 32 16 3 6 4 6 4 3 3 6 4 4 4 4 1 7 3 6 6 4 8 9 8 5 11 9 11
21 19 19 21 14 23 17 2 7 6 14 3 3 1 6 21 8 21 30 9 5 6 5 4 5 4 6 3 5 6 5 5 4 4 5 4 7 6 10 6 5 4 13 7 9
21 17 18 19 7 19 23 7 2 2 2 3 3 4 14 10 4 14 26 7 6 5 7 4 3 4 6 1 6 5 3 4 5 7 3 4 7 9 8 6 7 2 10 8 3
20 15 18 16 4 14 18 10 4 2 2 5 4 3 9 8 4 11 14 6 4 6 5 2 4 9 4 2 5 2 3 2 2 8 2 4 4 4 6 9 6 4 9 7 2
18 15 19 12 2 8 4 13 1 2 5 9 8 5 11 6 5 10 13 4 6 5 6 2 4 7 5 2 2 4 6 4 3 3 2 4 3 2 5 10 9 7 8 8 6
14 15 16 13 3 4 10 3 4 0 5 15 8 7 12 7 7 8 18 7 3 6 4 3 7 7 4 5 4 3 9 6 0 3 3 2 0 3 3 2 1 7 10 4 4
11 12 15 8 5 7 4 6 2 6 3 8 5 8 9 7 8 7 8 8 3 5 4 4 5 2 2 10 3 2 4 3 4 3 3 4 2 4 4 5 4 7 5 6 4
10 4 17 10 7 9 3 3 5 7 5 9 6 8 8 8 7 9 6 11 8 8 8 9 5 5 4 5 6 10 3 3 4 3 2 3 2 4 10 13 10 11 13 11 9
8 2 19 21 11 2 3 5 10 4 4 4 7 8 6 10 5 9 5 7 5 5 2 6 7 6 6 4 6 5 3 3 4 2 1 1 2 2 8 11 16 2 4 8 9
4 1 13 22 11 1 5 7 6 4 4 6 8 4 5 5 2 7 5 4 3 4 2 5 5 5 3 2 1 4 3 1 4 3 1 2 3 2 18 20 21 19 4 5 6
1 1 12 17 7 4 6 5 2 1 3 2 4 4 5 6 7 6 3 2 5 5 3 3 6 4 6 4 2 1 3 2 3 2 2 1 3 6 18 18 18 17 15 13 8
2 3 15 10 5 7 4 3 1 2 3 3 2 3 3 3 2 3 3 2 4 7 1 1 0 8 2 6 6 5 3 2 1 1 1 2 3 6 10 12 14 15 15 13 11
3 3 16 6 4 2 2 2 2 3 3 3 2 1 2 4 3 2 2 5 3 4 4 3 2 4 4 9 6 2 6 6 3 4 1 1 2 6 10 11 13 14 15 15 8
3 1 9 5 4 2 0 2 2 4 3 3 2 2 2 3 3 3 3 2 6 6 2 4 2 4 8 4 3 5 4 8 5 2 1 2 1 9 12 14 16 15 16 16 4
3 3 4 6 1 5 3 3 3 3 1 2 0 2 4 3 2 4 3 3 10 2 8 4 1 3 1 5 6 6 6 6 3 2 6 2 4 15 17 17 18 19 17 15 14
3 1 2 2 4 4 3 1 2 2 1 1 0 2 1 2 4 3 2 6 4 5 6 3 1 2 8 10 4 8 9 5 2 6 5 6 5 12 14 13 15 12 16 17 18
4 4 3 2 2 4 5 2 2 3 1 2 2 4 3 4 6 4 2 2 4 5 4 5 2 4 3 2 7 7 17 11 9 10 4 7 4 14 12 12 15 15 16 17 18
4 4 4 2 2 4 3 3 2 3 4 4 3 2 3 4 4 7 6 8 8 5 3 3 2 3 4 4 1 4 9 8 4 8 6 6 8 15 16 14 12 14 14 16 17
Wind_Direction
6 1 358 355 353 350 346 345 345 344 342 341 340 342 342 341 354 38 14 333 345 9 341 345 350 338 328 241 238 304 235 246 246 217 232 243 216 204 88 263 212 213 257 307 290
3 359 355 352 351 348 346 345 345 343 339 339 340 343 344 342 5 28 8 3 352 350 346 346 331 337 308 262 268 217 272 252 227 232 306 287 259 234 204 223 258 283 304 330 236
1 359 355 351 348 346 345 345 344 341 337 333 336 342 344 350 35 336 351 347 338 331 327 317 321 310 246 223 248 253 241 252 307 290 208 266 279 252 229 225 236 264 312 324 302
1 359 355 350 347 346 347 346 344 340 337 339 343 351 12 25 44 328 337 334 336 342 336 339 347 356 289 300 331 265 252 244 250 276 296 282 283 251 223 253 338 298 293 290 281
0 357 353 350 348 347 349 349 344 341 350 3 7 20 36 38 303 345 338 342 341 335 329 321 333 314 335 297 306 252 252 268 248 269 266 262 275 262 209 311 355 337 353 337 308
1 356 353 352 352 356 350 349 344 6 15 25 20 16 64 45 347 339 343 348 344 328 308 315 286 247 272 271 279 307 238 257 274 273 252 269 268 217 162 53 348 351 342 345 328
2 356 354 356 354 359 352 350 360 37 40 33 15 13 55 15 349 357 359 358 345 321 306 310 295 344 326 293 292 289 304 314 234 234 237 316 260 238 171 198 321 339 330 336 327
1 356 355 352 357 359 353 359 12 1 14 44 358 353 247 356 354 13 3 341 340 309 291 311 329 274 245 297 284 333 349 313 320 261 222 107 289 250 156 211 228 302 320 337 322
2 359 357 353 359 1 355 38 53 56 71 20 355 37 16 346 355 2 351 332 332 345 340 308 43 28 344 323 319 7 319 280 303 356 225 129 276 211 153 154 161 281 329 320 318
3 4 1 355 7 5 358 110 75 41 18 353 17 24 349 320 326 330 351 356 356 332 4 20 35 28 21 5 14 339 345 334 308 335 209 174 227 122 144 152 131 347 304 291 311
0 8 4 358 15 13 14 95 16 359 37 75 290 203 280 330 340 359 353 342 17 50 9 344 45 20 319 322 320 309 330 339 338 346 6 212 232 229 173 164 140 222 296 268 286
2 7 4 358 25 19 46 66 87 293 342 331 276 283 321 331 311 335 1 35 21 0 339 5 32 328 302 201 353 323 310 306 277 341 9 31 246 227 162 174 143 147 283 241 271
1 7 3 360 20 16 51 41 355 138 74 343 295 333 320 355 325 328 5 346 14 356 358 5 294 327 340 324 336 282 271 326 331 323 3 338 281 198 164 137 172 149 257 229 44
3 9 0 3 74 8 62 353 63 182 72 344 346 354 351 320 351 338 358 31 2 327 336 281 315 353 343 25 351 337 332 281 328 21 341 10 324 262 161 171 193 184 251 191 163
2 10 3 30 29 55 324 5 144 137 40 325 326 322 327 47 300 335 349 7 30 309 355 319 341 357 6 318 336 288 340 314 317 74 354 6 283 3 22 220 152 217 187 158 133
358 19 14 18 49 356 354 125 113 42 292 332 343 341 353 350 342 316 9 9 38 349 346 290 286 296 296 306 286 283 321 69 61 72 13 303 316 39 29 348 214 220 160 143 194
349 29 28 27 331 339 127 75 40 82 350 327 334 339 325 334 346 15 4 26 37 8 5 327 329 319 23 347 357 16 31 22 23 34 201 318 24 24 342 351 324 219 191 173 188
352 188 16 11 357 20 104 51 66 263 308 322 329 328 6 358 15 347 20 20 30 53 2 7 333 7 359 49 314 318 14 132 168 149 138 207 275 117 6 353 358 257 179 169 172
3 175 6 354 4 24 72 49 179 216 306 319 325 5 327 353 28 3 31 357 20 39 47 1 288 317 258 272 170 318 31 165 116 231 31 18 309 140 354 2 7 12 7 182 194
19 80 5 353 13 60 69 128 152 258 324 343 24 48 323 321 10 36 5 332 331 20 152 278 297 268 298 354 31 38 303 338 32 87 66 57 61 351 346 348 354 359 346 339 311
73 57 353 354 39 49 94 181 117 42 40 27 354 313 310 302 338 350 275 298 8 325 332 20 218 295 343 23 13 352 15 351 347 107 73 145 81 2 335 347 348 345 340 324 301
74 28 353 10 49 21 78 96 68 24 7 11 93 297 290 304 306 327 282 211 41 343 336 293 166 289 292 297 268 277 350 2 342 0 12 97 90 360 0 4 4 352 338 332 256
85 306 356 15 91 18 110 67 72 33 28 15 25 348 357 294 348 255 313 288 18 351 329 312 326 341 347 2 36 33 12 5 296 254 308 100 113 15 15 14 7 1 350 353 325
85 29 347 41 42 108 109 24 37 8 164 341 283 35 14 330 303 302 305 300 333 323 334 353 233 194 243 265 305 309 349 337 319 322 322 66 74 8 10 8 359 355 353 358 15
37 164 189 358 8 80 71 195 48 2 320 314 174 100 291 303 316 279 314 312 318 359 352 85 226 216 270 273 9 48 0 327 360 18 344 25 71 8 349 1 1 341 351 2 14
119 132 24 89 97 67 360 316 45 319 231 295 172 303 218 200 197 258 44 276 268 343 21 347 294 346 289 182 78 61 21 16 41 2 16 337 76 360 338 348 6 354 355 4 2
122 113 105 322 103 85 232 202 175 97 275 246 285 341 268 238 247 247 227 255 258 310 301 27 0 2 287 326 54 18 8 3 78 28 333 22 341 339 341 345 10 355 354 357 354